DW5274 Weather Reports


time (UTC)temp
C
wind
direction
speed
KPH
gust
KPH
rain 1hr
cm
rain 24hr
cm
rain mn
cm
humidity
%
barometer
mb
20260503030021 22 53 0.0 0.0 0.00 0.00 0.00 31 1009.1
20260503024518 22 53 0.0 0.0 0.00 0.00 0.00 31 1009.0
20260503023017 23 53 0.0 0.0 0.00 0.00 0.00 27 1009.0
20260503021516 23 53 0.0 0.0 0.00 0.00 0.00 27 1009.0
20260503020012 23 53 0.0 0.0 0.00 0.00 0.00 25 1009.0
20260503014509 24 53 0.0 0.0 0.00 0.00 0.00 24 1009.0
20260503013009 25 53 0.0 0.0 0.00 0.00 0.00 23 1009.2
20260503011506 25 66 0.0 0.0 0.00 0.00 0.00 23 1009.3
20260503010003 25 69 0.0 0.0 0.00 0.00 0.00 21 1009.3
20260503004600 26 78 0.0 0.0 0.00 0.00 0.00 15 1009.3
20260503003058 27 86 0.0 0.0 0.00 0.00 0.00 17 1009.3
20260503001537 26 88 0.0 0.0 0.00 0.00 0.00 18 1009.4
20260503000052 27 89 0.0 0.0 0.00 0.00 0.00 16 1009.6
20260502234517 26 87 0.0 0.0 0.00 0.00 0.00 19 1009.6
20260502233015 26 71 0.0 0.0 0.00 0.00 0.00 15 1009.7
20260502231503 27 71 0.0 0.0 0.00 0.00 0.00 13 1009.8
20260502230101 27 71 0.0 0.0 0.00 0.00 0.00 16 1010.0
20260502224558 27 76 0.0 0.0 0.00 0.00 0.00 15 1010.2
20260502223057 26 79 0.0 0.0 0.00 0.00 0.00 17 1010.4
20260502221611 27 183 0.0 0.0 0.00 0.00 0.00 15 1010.6
20260502220101 27 180 0.0 0.0 0.00 0.00 0.00 17 1010.8
20260502214552 26 183 0.0 0.0 0.00 0.00 0.00 18 1011.0
20260502213050 27 183 4.8 0.0 0.00 0.00 0.00 19 1011.2
20260502211535 27 211 0.0 0.0 0.00 0.00 0.00 17 1011.4
20260502210027 27 158 0.0 0.0 0.00 0.00 0.00 15 1011.7
20260502204506 27 169 3.2 0.0 0.00 0.00 0.00 22 1011.8
20260502203004 26 162 0.0 0.0 0.00 0.00 0.00 18 1011.9
20260502201548 26 60 0.0 0.0 0.00 0.00 0.00 25 1012.1
20260502200053 25 105 0.0 0.0 0.00 0.00 0.00 26 1012.2
20260502194525 24 105 0.0 0.0 0.00 0.00 0.00 27 1012.5
20260502193022 23 117 0.0 0.0 0.00 0.00 0.00 33 1012.9
20260502191520 23 117 0.0 0.0 0.00 0.00 0.00 30 1013.2
20260502190025 23 178 0.0 0.0 0.00 0.00 0.00 32 1013.4
20260502184516 22 178 0.0 0.0 0.00 0.00 0.00 34 1013.7
20260502183015 22 178 0.0 0.0 0.00 0.00 0.00 34 1013.9
20260502181514 22 178 0.0 0.0 0.00 0.00 0.00 33 1014.1
20260502163021 16 209 0.0 0.0 0.00 0.00 0.00 41 1015.0
20260502161609 16 212 0.0 0.0 0.00 0.00 0.00 43 1015.1
20260502151548 12 202 0.0 0.0 0.00 0.00 0.00 53 1014.9
20260502140116 10 196 0.0 0.0 0.00 0.00 0.00 51 1014.8
20260502123049 10 140 0.0 0.0 0.00 0.00 0.00 54 1014.4
20260502121537 10 140 0.0 0.0 0.00 0.00 0.00 53 1014.3
20260502114513 11 140 4.8 0.0 0.00 0.00 0.00 53 1014.0
20260502113013 10 143 4.8 0.0 0.00 0.00 0.00 54 1014.2
20260502111555 10 140 0.0 0.0 0.00 0.00 0.00 55 1014.2
20260502104536 10 142 0.0 0.0 0.00 0.00 0.00 56 1014.3
20260502103036 10 142 0.0 0.0 0.00 0.00 0.00 55 1014.3
20260502101519 10 144 0.0 0.0 0.00 0.00 0.00 53 1014.3
20260502090109 10 144 0.0 0.0 0.00 0.00 0.00 54 1014.4
20260502070038 11 148 0.0 0.0 0.00 0.00 0.00 53 1014.5
20260502064520 12 148 0.0 0.0 0.00 0.00 0.00 49 1014.7
20260502063008 12 148 0.0 0.0 0.00 0.00 0.00 48 1014.6
20260502061503 12 148 0.0 0.0 0.00 0.00 0.00 47 1014.6
20260502060100 13 148 0.0 0.0 0.00 0.00 0.00 46 1014.6
20260502054603 13 148 0.0 0.0 0.00 0.00 0.00 44 1014.5
20260502053055 13 148 0.0 0.0 0.00 0.00 0.00 43 1014.5
20260502051554 14 148 0.0 0.0 0.00 0.00 0.00 42 1014.5
20260502050049 15 148 0.0 0.0 0.00 0.00 0.00 41 1014.5
20260502044547 15 148 0.0 0.0 0.00 0.00 0.00 41 1014.5
20260502043024 16 148 0.0 0.0 0.00 0.00 0.00 40 1014.5
20260502041526 17 148 0.0 0.0 0.00 0.00 0.00 37 1014.5
20260502040105 18 148 0.0 0.0 0.00 0.00 0.00 35 1014.5
20260502034557 18 148 0.0 0.0 0.00 0.00 0.00 33 1014.3
20260502033041 19 148 0.0 0.0 0.00 0.00 0.00 30 1014.3
20260502031538 19 148 0.0 0.0 0.00 0.00 0.00 28 1014.2